Time,TemperatureF,DewpointF,PressureIn,WindDirection,WindDirectionDegrees,WindSpeedMPH,WindSpeedGustMPH,Humidity,HourlyPrecipIn,Conditions,Clouds,dailyrainin,SoftwareType,DateUTC
2013-09-17 00:03:00,80.4,38.1,-100.00,SSE,152,12.0,16.0,22,0.00,,,0.00,meteohub,2013-09-17 07:03:00,
2013-09-17 00:08:00,80.2,37.9,-100.00,SSE,152,8.0,16.0,22,0.00,,,0.00,meteohub,2013-09-17 07:08:00,
2013-09-17 00:13:00,80.2,37.9,-100.00,SSE,160,8.0,17.0,22,0.00,,,0.00,meteohub,2013-09-17 07:13:00,
2013-09-17 00:18:00,80.4,36.9,-100.00,South,183,11.0,17.0,21,0.00,,,0.00,meteohub,2013-09-17 07:18:00,
2013-09-17 00:23:00,80.6,37.0,-100.00,SSE,164,12.0,17.0,21,0.00,,,0.00,meteohub,2013-09-17 07:23:00,
2013-09-17 00:28:00,80.4,36.9,-100.00,SSE,163,8.0,15.0,21,0.00,,,0.00,meteohub,2013-09-17 07:28:00,
2013-09-17 00:33:00,80.1,36.7,-100.00,SSE,160,6.0,15.0,21,0.00,,,0.00,meteohub,2013-09-17 07:33:00,
2013-09-17 00:38:00,79.9,36.5,-100.00,SSE,163,8.0,13.0,21,0.00,,,0.00,meteohub,2013-09-17 07:38:00,
2013-09-17 00:43:00,79.9,36.5,-100.00,SSE,159,8.0,12.0,21,0.00,,,0.00,meteohub,2013-09-17 07:43:00,
2013-09-17 00:48:00,79.9,36.5,-100.00,SSE,159,3.0,12.0,21,0.00,,,0.00,meteohub,2013-09-17 07:48:00,
2013-09-17 00:53:00,79.5,36.1,-100.00,South,177,11.0,12.0,21,0.00,,,0.00,meteohub,2013-09-17 07:53:00,
2013-09-17 00:58:00,79.2,37.0,-100.00,SSE,165,9.0,12.0,22,0.00,,,0.00,meteohub,2013-09-17 07:58:00,
2013-09-17 01:03:00,79.0,36.9,-100.00,SSE,165,6.0,12.0,22,0.00,,,0.00,meteohub,2013-09-17 08:03:00,
2013-09-17 01:08:00,78.6,36.7,-100.00,SSE,154,8.0,13.0,22,0.00,,,0.00,meteohub,2013-09-17 08:08:00,
2013-09-17 01:13:00,78.6,36.7,-100.00,SSE,159,8.0,13.0,22,0.00,,,0.00,meteohub,2013-09-17 08:13:00,
2013-09-17 01:18:00,78.4,36.5,-100.00,SSE,153,8.0,13.0,22,0.00,,,0.00,meteohub,2013-09-17 08:18:00,
2013-09-17 01:23:00,78.3,36.3,-100.00,SSE,157,4.0,11.0,22,0.00,,,0.00,meteohub,2013-09-17 08:23:00,
2013-09-17 01:28:00,78.1,36.1,-100.00,SW,218,9.0,11.0,22,0.00,,,0.00,meteohub,2013-09-17 08:28:00,
2013-09-17 01:33:00,78.3,35.1,-100.00,SSW,208,11.0,18.0,21,0.00,,,0.00,meteohub,2013-09-17 08:33:00,
2013-09-17 01:38:00,78.6,35.4,-100.00,SSW,192,16.0,18.0,21,0.00,,,0.00,meteohub,2013-09-17 08:38:00,
2013-09-17 01:43:00,79.2,35.8,-100.00,South,190,11.0,18.0,21,0.00,,,0.00,meteohub,2013-09-17 08:43:00,
2013-09-17 01:48:00,79.2,34.7,-100.00,SW,218,12.0,18.0,20,0.00,,,0.00,meteohub,2013-09-17 08:48:00,
2013-09-17 01:53:00,79.0,34.5,-100.00,SW,233,12.0,18.0,20,0.00,,,0.00,meteohub,2013-09-17 08:53:00,
2013-09-17 01:58:00,79.0,34.5,-100.00,SSW,211,7.0,18.0,20,0.00,,,0.00,meteohub,2013-09-17 08:58:00,
2013-09-17 02:03:00,79.2,33.4,-100.00,SSW,207,10.0,18.0,19,0.00,,,0.00,meteohub,2013-09-17 09:03:00,
2013-09-17 02:08:00,79.2,33.4,-100.00,SW,228,9.0,18.0,19,0.00,,,0.00,meteohub,2013-09-17 09:08:00,
2013-09-17 02:13:00,79.0,33.3,-100.00,SW,217,7.0,18.0,19,0.00,,,0.00,meteohub,2013-09-17 09:13:00,
2013-09-17 02:18:00,78.6,32.9,-100.00,SSW,213,9.0,18.0,19,0.00,,,0.00,meteohub,2013-09-17 09:18:00,
2013-09-17 02:23:00,78.6,32.9,-100.00,SW,223,14.0,19.0,19,0.00,,,0.00,meteohub,2013-09-17 09:23:00,
2013-09-17 02:28:00,78.6,32.9,-100.00,SSW,209,7.0,20.0,19,0.00,,,0.00,meteohub,2013-09-17 09:28:00,
2013-09-17 02:33:00,78.6,32.9,-100.00,SSW,213,7.0,20.0,19,0.00,,,0.00,meteohub,2013-09-17 09:33:00,
2013-09-17 02:38:00,78.6,32.9,-100.00,SW,226,8.0,20.0,19,0.00,,,0.00,meteohub,2013-09-17 09:38:00,
2013-09-17 02:43:00,78.8,33.1,-100.00,SW,235,9.0,18.0,19,0.00,,,0.00,meteohub,2013-09-17 09:43:00,
2013-09-17 02:48:00,79.0,33.3,-100.00,SSW,208,6.0,16.0,19,0.00,,,0.00,meteohub,2013-09-17 09:48:00,
2013-09-17 02:53:00,78.6,32.9,-100.00,SSW,196,10.0,16.0,19,0.00,,,0.00,meteohub,2013-09-17 09:53:00,
2013-09-17 02:59:00,78.4,32.7,-100.00,SSW,207,7.0,16.0,19,0.00,,,0.00,meteohub,2013-09-17 09:59:00,
2013-09-17 03:04:00,78.4,32.7,-100.00,SSW,200,7.0,14.0,19,0.00,,,0.00,meteohub,2013-09-17 10:04:00,
2013-09-17 03:09:00,78.4,34.0,-100.00,South,179,10.0,14.0,20,0.00,,,0.00,meteohub,2013-09-17 10:09:00,
2013-09-17 03:14:00,78.3,34.0,-100.00,South,175,6.0,15.0,20,0.00,,,0.00,meteohub,2013-09-17 10:14:00,
2013-09-17 03:19:00,78.1,33.8,-100.00,South,182,5.0,15.0,20,0.00,,,0.00,meteohub,2013-09-17 10:19:00,
2013-09-17 03:24:00,77.5,34.5,-100.00,SSW,196,2.0,15.0,21,0.00,,,0.00,meteohub,2013-09-17 10:24:00,
2013-09-17 03:29:00,77.2,34.2,-100.00,South,179,4.0,14.0,21,0.00,,,0.00,meteohub,2013-09-17 10:29:00,
2013-09-17 03:34:00,77.0,34.2,-100.00,South,171,3.0,10.0,21,0.00,,,0.00,meteohub,2013-09-17 10:34:00,
2013-09-17 03:39:00,76.8,34.0,-100.00,South,173,2.0,9.0,21,0.00,,,0.00,meteohub,2013-09-17 10:39:00,
2013-09-17 03:44:00,76.5,34.9,-100.00,SW,227,6.0,9.0,22,0.00,,,0.00,meteohub,2013-09-17 10:44:00,
2013-09-17 03:49:00,75.9,35.4,-100.00,SW,227,7.0,9.0,23,0.00,,,0.00,meteohub,2013-09-17 10:49:00,
2013-09-17 03:54:00,75.6,35.2,-100.00,SW,235,5.0,9.0,23,0.00,,,0.00,meteohub,2013-09-17 10:54:00,
2013-09-17 03:59:00,75.4,35.1,-100.00,SW,225,3.0,12.0,23,0.00,,,0.00,meteohub,2013-09-17 10:59:00,
2013-09-17 04:04:00,75.0,35.8,-100.00,WSW,237,7.0,12.0,24,0.00,,,0.00,meteohub,2013-09-17 11:04:00,
2013-09-17 04:09:00,74.7,35.4,-100.00,SW,226,3.0,12.0,24,0.00,,,0.00,meteohub,2013-09-17 11:09:00,
2013-09-17 04:14:00,74.3,35.2,-100.00,SW,234,9.0,11.0,24,0.00,,,0.00,meteohub,2013-09-17 11:14:00,
2013-09-17 04:19:00,73.9,36.0,-100.00,SSW,202,7.0,11.0,25,0.00,,,0.00,meteohub,2013-09-17 11:19:00,
2013-09-17 04:24:00,73.6,36.5,-100.00,SSW,207,6.0,11.0,26,0.00,,,0.00,meteohub,2013-09-17 11:24:00,
2013-09-17 04:29:00,73.2,36.3,-100.00,SSW,206,7.0,11.0,26,0.00,,,0.00,meteohub,2013-09-17 11:29:00,
2013-09-17 04:34:00,73.2,36.3,-100.00,SW,225,9.0,11.0,26,0.00,,,0.00,meteohub,2013-09-17 11:34:00,
2013-09-17 04:39:00,73.0,36.1,-100.00,WSW,240,11.0,12.0,26,0.00,,,0.00,meteohub,2013-09-17 11:39:00,
2013-09-17 04:44:00,73.0,36.1,-100.00,WSW,238,11.0,17.0,26,0.00,,,0.00,meteohub,2013-09-17 11:44:00,
2013-09-17 04:49:00,73.2,36.3,-100.00,SSW,207,7.0,17.0,26,0.00,,,0.00,meteohub,2013-09-17 11:49:00,
2013-09-17 04:54:00,73.6,36.5,-100.00,SW,220,6.0,17.0,26,0.00,,,0.00,meteohub,2013-09-17 11:54:00,
2013-09-17 04:59:00,73.8,35.8,-100.00,SW,223,4.0,14.0,25,0.00,,,0.00,meteohub,2013-09-17 11:59:00,
2013-09-17 05:04:00,73.8,35.8,-100.00,SW,228,11.0,14.0,25,0.00,,,0.00,meteohub,2013-09-17 12:04:00,
2013-09-17 05:09:00,73.8,35.8,-100.00,SW,229,7.0,16.0,25,0.00,,,0.00,meteohub,2013-09-17 12:09:00,
2013-09-17 05:14:00,73.9,36.0,-100.00,SSW,213,8.0,17.0,25,0.00,,,0.00,meteohub,2013-09-17 12:14:00,
2013-09-17 05:19:00,74.1,36.0,-100.00,SSW,212,5.0,17.0,25,0.00,,,0.00,meteohub,2013-09-17 12:19:00,
2013-09-17 05:24:00,73.9,36.0,-100.00,SSW,196,3.0,14.0,25,0.00,,,0.00,meteohub,2013-09-17 12:24:00,
2013-09-17 05:29:00,73.8,36.7,-100.00,SSW,203,1.0,14.0,26,0.00,,,0.00,meteohub,2013-09-17 12:29:00,
2013-09-17 05:34:00,73.4,36.5,-100.00,WSW,254,8.0,9.0,26,0.00,,,0.00,meteohub,2013-09-17 12:34:00,
2013-09-17 05:39:00,73.0,37.0,-100.00,SSW,206,4.0,9.0,27,0.00,,,0.00,meteohub,2013-09-17 12:39:00,
2013-09-17 05:44:00,72.7,36.9,-100.00,WSW,258,11.0,13.0,27,0.00,,,0.00,meteohub,2013-09-17 12:44:00,
2013-09-17 05:49:00,72.3,36.5,-100.00,SW,234,4.0,13.0,27,0.00,,,0.00,meteohub,2013-09-17 12:49:00,
2013-09-17 05:54:00,72.1,36.3,-100.00,SW,226,4.0,13.0,27,0.00,,,0.00,meteohub,2013-09-17 12:54:00,
2013-09-17 05:59:00,72.0,36.1,-100.00,SSW,200,2.0,12.0,27,0.00,,,0.00,meteohub,2013-09-17 12:59:00,
2013-09-17 06:04:00,71.8,36.9,-100.00,SSW,200,2.0,12.0,28,0.00,,,0.00,meteohub,2013-09-17 13:04:00,
2013-09-17 06:09:00,71.6,36.7,-100.00,West,261,6.0,8.0,28,0.00,,,0.00,meteohub,2013-09-17 13:09:00,
2013-09-17 06:15:00,71.2,36.5,-100.00,West,274,8.0,8.0,28,0.00,,,0.00,meteohub,2013-09-17 13:15:00,
2013-09-17 06:20:00,71.1,37.2,-100.00,WSW,250,8.0,14.0,29,0.00,,,0.00,meteohub,2013-09-17 13:20:00,
2013-09-17 06:25:00,70.9,37.0,-100.00,WSW,244,3.0,14.0,29,0.00,,,0.00,meteohub,2013-09-17 13:25:00,
2013-09-17 06:30:00,70.7,37.8,-100.00,WSW,240,3.0,14.0,30,0.00,,,0.00,meteohub,2013-09-17 13:30:00,
2013-09-17 06:35:00,70.5,37.6,-100.00,WSW,254,5.0,13.0,30,0.00,,,0.00,meteohub,2013-09-17 13:35:00,
2013-09-17 06:40:00,70.3,37.4,-100.00,SW,229,6.0,13.0,30,0.00,,,0.00,meteohub,2013-09-17 13:40:00,
2013-09-17 06:45:00,70.2,37.2,-100.00,SSW,208,4.0,8.0,30,0.00,,,0.00,meteohub,2013-09-17 13:45:00,
2013-09-17 06:50:00,70.3,37.4,-100.00,SSW,205,3.0,9.0,30,0.00,,,0.00,meteohub,2013-09-17 13:50:00,
2013-09-17 06:55:00,70.5,37.6,-100.00,South,176,5.0,9.0,30,0.00,,,0.00,meteohub,2013-09-17 13:55:00,
2013-09-17 07:00:00,70.5,37.6,-100.00,South,173,0.0,9.0,30,0.00,,,0.00,meteohub,2013-09-17 14:00:00,
2013-09-17 07:05:00,70.7,37.8,-100.00,South,172,0.0,9.0,30,0.00,,,0.00,meteohub,2013-09-17 14:05:00,
2013-09-17 07:10:00,71.1,38.8,-100.00,South,188,5.0,7.0,31,0.00,,,0.00,meteohub,2013-09-17 14:10:00,
2013-09-17 07:15:00,71.6,38.5,-100.00,South,169,6.0,8.0,30,0.00,,,0.00,meteohub,2013-09-17 14:15:00,
2013-09-17 07:20:00,72.1,38.1,-100.00,SSE,167,8.0,8.0,29,0.00,,,0.00,meteohub,2013-09-17 14:20:00,
2013-09-17 07:25:00,72.9,38.7,-100.00,South,169,10.0,10.0,29,0.00,,,0.00,meteohub,2013-09-17 14:25:00,
2013-09-17 07:30:00,73.6,39.4,-100.00,South,191,11.0,14.0,29,0.00,,,0.00,meteohub,2013-09-17 14:30:00,
2013-09-17 07:35:00,73.9,38.8,-100.00,South,191,4.0,14.0,28,0.00,,,0.00,meteohub,2013-09-17 14:35:00,
2013-09-17 07:40:00,74.3,38.1,-100.00,SW,215,0.0,12.0,27,0.00,,,0.00,meteohub,2013-09-17 14:40:00,
2013-09-17 07:45:00,74.5,38.3,-100.00,SW,217,2.0,12.0,27,0.00,,,0.00,meteohub,2013-09-17 14:45:00,
2013-09-17 07:50:00,74.5,38.3,-100.00,SSW,213,2.0,9.0,27,0.00,,,0.00,meteohub,2013-09-17 14:50:00,
2013-09-17 07:55:00,75.0,38.8,-100.00,South,175,4.0,7.0,27,0.00,,,0.00,meteohub,2013-09-17 14:55:00,
2013-09-17 08:00:00,75.6,38.3,-100.00,SSW,206,5.0,7.0,26,0.00,,,0.00,meteohub,2013-09-17 15:00:00,
2013-09-17 08:05:00,75.9,37.6,-100.00,South,188,15.0,15.0,25,0.00,,,0.00,meteohub,2013-09-17 15:05:00,
2013-09-17 08:10:00,76.8,37.2,-100.00,South,180,10.0,10.0,24,0.00,,,0.00,meteohub,2013-09-17 15:10:00,
2013-09-17 08:15:00,77.7,37.0,-100.00,South,175,9.0,17.0,23,0.00,,,0.00,meteohub,2013-09-17 15:15:00,
2013-09-17 08:20:00,78.3,37.4,-100.00,South,181,10.0,18.0,23,0.00,,,0.00,meteohub,2013-09-17 15:20:00,
2013-09-17 08:25:00,79.2,38.1,-100.00,WSW,243,5.0,18.0,23,0.00,,,0.00,meteohub,2013-09-17 15:25:00,
2013-09-17 08:30:00,79.2,38.1,-100.00,SSW,209,4.0,18.0,23,0.00,,,0.00,meteohub,2013-09-17 15:30:00,
2013-09-17 08:35:00,79.2,38.1,-100.00,SSW,213,2.0,18.0,23,0.00,,,0.00,meteohub,2013-09-17 15:35:00,
2013-09-17 08:41:00,79.5,37.4,-100.00,SSW,203,7.0,15.0,22,0.00,,,0.00,meteohub,2013-09-17 15:41:00,
2013-09-17 08:46:00,80.2,36.7,-100.00,SSW,200,13.0,15.0,21,0.00,,,0.00,meteohub,2013-09-17 15:46:00,
2013-09-17 08:51:00,80.8,37.2,-100.00,South,186,4.0,16.0,21,0.00,,,0.00,meteohub,2013-09-17 15:51:00,
2013-09-17 08:56:00,81.0,36.1,-100.00,SW,229,4.0,16.0,20,0.00,,,0.00,meteohub,2013-09-17 15:56:00,
2013-09-17 09:01:00,81.3,36.5,-100.00,SSW,207,7.0,17.0,20,0.00,,,0.00,meteohub,2013-09-17 16:01:00,
2013-09-17 09:06:00,81.5,36.5,-100.00,SW,225,8.0,20.0,20,0.00,,,0.00,meteohub,2013-09-17 16:06:00,
2013-09-17 09:12:00,81.9,36.9,-100.00,South,186,11.0,20.0,20,0.00,,,0.00,meteohub,2013-09-17 16:12:00,
2013-09-17 09:17:00,82.0,38.3,-100.00,South,174,10.0,20.0,21,0.00,,,0.00,meteohub,2013-09-17 16:17:00,
2013-09-17 09:22:00,82.2,38.5,-100.00,South,178,9.0,21.0,21,0.00,,,0.00,meteohub,2013-09-17 16:22:00,
2013-09-17 09:27:00,82.4,38.5,-100.00,South,173,14.0,21.0,21,0.00,,,0.00,meteohub,2013-09-17 16:27:00,
2013-09-17 09:32:00,82.8,38.8,-100.00,South,186,11.0,21.0,21,0.00,,,0.00,meteohub,2013-09-17 16:32:00,
2013-09-17 09:37:00,82.9,37.8,-100.00,SSW,204,16.0,20.0,20,0.00,,,0.00,meteohub,2013-09-17 16:37:00,
2013-09-17 09:42:00,83.5,38.1,-100.00,South,181,21.0,22.0,20,0.00,,,0.00,meteohub,2013-09-17 16:42:00,
2013-09-17 09:47:00,83.7,37.0,-100.00,SW,215,17.0,25.0,19,0.00,,,0.00,meteohub,2013-09-17 16:47:00,
2013-09-17 09:52:00,84.0,36.0,-100.00,South,175,12.0,27.0,18,0.00,,,0.00,meteohub,2013-09-17 16:52:00,
2013-09-17 09:57:00,84.0,37.4,-100.00,SSE,165,23.0,27.0,19,0.00,,,0.00,meteohub,2013-09-17 16:57:00,
2013-09-17 10:02:00,84.0,37.4,-100.00,SSE,157,10.0,24.0,19,0.00,,,0.00,meteohub,2013-09-17 17:02:00,
2013-09-17 10:07:00,84.0,36.0,-100.00,SSE,162,11.0,25.0,18,0.00,,,0.00,meteohub,2013-09-17 17:07:00,
2013-09-17 10:12:00,84.7,36.5,-100.00,SSW,207,7.0,25.0,18,0.00,,,0.00,meteohub,2013-09-17 17:12:00,
2013-09-17 10:17:00,85.5,37.0,-100.00,SSE,167,11.0,24.0,18,0.00,,,0.00,meteohub,2013-09-17 17:17:00,
2013-09-17 10:22:00,85.6,37.2,-100.00,South,185,20.0,25.0,18,0.00,,,0.00,meteohub,2013-09-17 17:22:00,
2013-09-17 10:27:00,85.6,37.2,-100.00,South,189,16.0,25.0,18,0.00,,,0.00,meteohub,2013-09-17 17:27:00,
2013-09-17 10:32:00,85.6,37.2,-100.00,SSE,167,16.0,23.0,18,0.00,,,0.00,meteohub,2013-09-17 17:32:00,
2013-09-17 10:37:00,85.6,37.2,-100.00,South,185,10.0,32.0,18,0.00,,,0.00,meteohub,2013-09-17 17:37:00,
2013-09-17 10:42:00,86.2,37.8,-100.00,South,173,15.0,32.0,18,0.00,,,0.00,meteohub,2013-09-17 17:42:00,
2013-09-17 10:47:00,86.5,36.5,-100.00,SSW,211,9.0,32.0,17,0.00,,,0.00,meteohub,2013-09-17 17:47:00,
2013-09-17 10:52:00,86.7,36.7,-100.00,South,175,12.0,25.0,17,0.00,,,0.00,meteohub,2013-09-17 17:52:00,
2013-09-17 10:57:00,86.7,36.7,-100.00,SSE,161,12.0,26.0,17,0.00,,,0.00,meteohub,2013-09-17 17:57:00,
2013-09-17 11:02:00,87.3,37.2,-100.00,South,180,12.0,29.0,17,0.00,,,0.00,meteohub,2013-09-17 18:02:00,
2013-09-17 11:07:00,87.4,37.2,-100.00,South,180,23.0,29.0,17,0.00,,,0.00,meteohub,2013-09-17 18:07:00,
2013-09-17 11:12:00,87.4,35.8,-100.00,SSW,212,14.0,30.0,16,0.00,,,0.00,meteohub,2013-09-17 18:12:00,
2013-09-17 11:17:00,87.8,36.0,-100.00,South,175,22.0,30.0,16,0.00,,,0.00,meteohub,2013-09-17 18:17:00,
2013-09-17 11:22:00,87.8,32.7,-100.00,SSW,193,21.0,30.0,14,0.00,,,0.00,meteohub,2013-09-17 18:22:00,
2013-09-17 11:27:00,88.0,32.9,-100.00,SW,219,15.0,29.0,14,0.00,,,0.00,meteohub,2013-09-17 18:27:00,
2013-09-17 11:32:00,88.2,32.9,-100.00,South,182,22.0,29.0,14,0.00,,,0.00,meteohub,2013-09-17 18:32:00,
2013-09-17 11:37:00,88.3,33.1,-100.00,South,171,29.0,29.0,14,0.00,,,0.00,meteohub,2013-09-17 18:37:00,
2013-09-17 11:42:00,88.5,33.3,-100.00,SSW,194,11.0,29.0,14,0.00,,,0.00,meteohub,2013-09-17 18:42:00,
2013-09-17 11:47:00,89.2,32.0,-100.00,SSW,192,15.0,29.0,13,0.00,,,0.00,meteohub,2013-09-17 18:47:00,
2013-09-17 11:52:00,89.4,32.2,-100.00,SSW,211,9.0,29.0,13,0.00,,,0.00,meteohub,2013-09-17 18:52:00,
2013-09-17 11:57:00,89.8,32.4,-100.00,SSW,211,16.0,25.0,13,0.00,,,0.00,meteohub,2013-09-17 18:57:00,
2013-09-17 12:02:00,89.8,32.4,-100.00,South,174,19.0,25.0,13,0.00,,,0.00,meteohub,2013-09-17 19:02:00,
2013-09-17 12:07:00,90.0,32.5,-100.00,SSW,207,18.0,30.0,13,0.00,,,0.00,meteohub,2013-09-17 19:07:00,
2013-09-17 12:12:00,90.1,28.6,-100.00,SW,214,18.0,30.0,11,0.00,,,0.00,meteohub,2013-09-17 19:12:00,
2013-09-17 12:17:00,90.7,31.1,-100.00,South,178,18.0,30.0,12,0.00,,,0.00,meteohub,2013-09-17 19:17:00,
2013-09-17 12:22:00,90.9,24.3,-100.00,SSW,196,9.0,26.0,9,0.00,,,0.00,meteohub,2013-09-17 19:22:00,
2013-09-17 12:27:00,91.0,14.9,-100.00,SSW,202,18.0,26.0,6,0.00,,,0.00,meteohub,2013-09-17 19:27:00,
2013-09-17 12:32:00,91.6,18.9,-100.00,SW,234,17.0,29.0,7,0.00,,,0.00,meteohub,2013-09-17 19:32:00,
2013-09-17 12:37:00,91.9,19.0,-100.00,SSW,211,5.0,29.0,7,0.00,,,0.00,meteohub,2013-09-17 19:37:00,
2013-09-17 12:42:00,92.3,19.4,-100.00,SSW,207,15.0,29.0,7,0.00,,,0.00,meteohub,2013-09-17 19:42:00,
2013-09-17 12:47:00,92.7,22.8,-100.00,South,176,11.0,26.0,8,0.00,,,0.00,meteohub,2013-09-17 19:47:00,
2013-09-17 12:52:00,93.0,23.0,-100.00,SSW,207,17.0,26.0,8,0.00,,,0.00,meteohub,2013-09-17 19:52:00,
2013-09-17 12:57:00,93.0,23.0,-100.00,SSW,209,14.0,26.0,8,0.00,,,0.00,meteohub,2013-09-17 19:57:00,
2013-09-17 13:02:00,93.0,23.0,-100.00,SW,219,13.0,26.0,8,0.00,,,0.00,meteohub,2013-09-17 20:02:00,
2013-09-17 13:07:00,92.8,23.0,-100.00,SSW,213,24.0,26.0,8,0.00,,,0.00,meteohub,2013-09-17 20:07:00,
2013-09-17 13:12:00,92.8,25.7,-100.00,SSW,213,7.0,26.0,9,0.00,,,0.00,meteohub,2013-09-17 20:12:00,
2013-09-17 13:17:00,93.0,25.9,-100.00,SSW,209,13.0,25.0,9,0.00,,,0.00,meteohub,2013-09-17 20:17:00,
2013-09-17 13:22:00,93.0,23.0,-100.00,WSW,251,10.0,25.0,8,0.00,,,0.00,meteohub,2013-09-17 20:22:00,
2013-09-17 13:27:00,93.0,28.4,-100.00,South,182,8.0,25.0,10,0.00,,,0.00,meteohub,2013-09-17 20:27:00,
2013-09-17 13:32:00,93.4,23.4,-100.00,WSW,250,13.0,25.0,8,0.00,,,0.00,meteohub,2013-09-17 20:32:00,
2013-09-17 13:37:00,93.6,23.4,-100.00,SW,234,18.0,25.0,8,0.00,,,0.00,meteohub,2013-09-17 20:37:00,
2013-09-17 13:42:00,93.7,20.5,-100.00,SSW,192,12.0,25.0,7,0.00,,,0.00,meteohub,2013-09-17 20:42:00,
2013-09-17 13:47:00,93.6,20.3,-100.00,SSW,203,21.0,31.0,7,0.00,,,0.00,meteohub,2013-09-17 20:47:00,
2013-09-17 13:52:00,93.7,20.5,-100.00,SSW,211,17.0,31.0,7,0.00,,,0.00,meteohub,2013-09-17 20:52:00,
2013-09-17 13:58:00,93.9,16.9,-100.00,WSW,239,10.0,32.0,6,0.00,,,0.00,meteohub,2013-09-17 20:58:00,
2013-09-17 14:03:00,94.3,17.2,-100.00,SE,140,21.0,32.0,6,0.00,,,0.00,meteohub,2013-09-17 21:03:00,
2013-09-17 14:08:00,94.5,21.0,-100.00,SSW,212,11.0,29.0,7,0.00,,,0.00,meteohub,2013-09-17 21:08:00,
2013-09-17 14:13:00,94.5,17.4,-100.00,WSW,240,17.0,29.0,6,0.00,,,0.00,meteohub,2013-09-17 21:13:00,
2013-09-17 14:18:00,94.6,13.3,-100.00,SSW,196,17.0,34.0,5,0.00,,,0.00,meteohub,2013-09-17 21:18:00,
2013-09-17 14:23:00,94.5,8.2,-100.00,SW,234,19.0,34.0,4,0.00,,,0.00,meteohub,2013-09-17 21:23:00,
2013-09-17 14:28:00,94.5,17.4,-100.00,SSW,196,19.0,35.0,6,0.00,,,0.00,meteohub,2013-09-17 21:28:00,
2013-09-17 14:33:00,94.3,1.8,-100.00,SW,236,26.0,35.0,3,0.00,,,0.00,meteohub,2013-09-17 21:33:00,
2013-09-17 14:38:00,94.3,13.1,-100.00,SSW,192,23.0,36.0,5,0.00,,,0.00,meteohub,2013-09-17 21:38:00,
2013-09-17 14:43:00,94.3,8.1,-100.00,South,191,18.0,38.0,4,0.00,,,0.00,meteohub,2013-09-17 21:43:00,
2013-09-17 14:48:00,94.3,1.8,-100.00,SSW,209,29.0,38.0,3,0.00,,,0.00,meteohub,2013-09-17 21:48:00,
2013-09-17 14:53:00,94.3,13.1,-100.00,South,190,20.0,36.0,5,0.00,,,0.00,meteohub,2013-09-17 21:53:00,
2013-09-17 14:58:00,94.5,8.2,-100.00,South,189,13.0,36.0,4,0.00,,,0.00,meteohub,2013-09-17 21:58:00,
2013-09-17 15:03:00,94.3,13.1,-100.00,SSW,196,21.0,35.0,5,0.00,,,0.00,meteohub,2013-09-17 22:03:00,
2013-09-17 15:08:00,94.1,12.9,-100.00,South,191,21.0,36.0,5,0.00,,,0.00,meteohub,2013-09-17 22:08:00,
2013-09-17 15:13:00,94.3,13.1,-100.00,SSW,209,11.0,36.0,5,0.00,,,0.00,meteohub,2013-09-17 22:13:00,
2013-09-17 15:18:00,93.9,16.9,-100.00,SSW,204,35.0,37.0,6,0.00,,,0.00,meteohub,2013-09-17 22:18:00,
2013-09-17 15:23:00,93.9,12.7,-100.00,SSW,203,17.0,37.0,5,0.00,,,0.00,meteohub,2013-09-17 22:23:00,
2013-09-17 15:28:00,94.3,17.2,-100.00,South,184,19.0,37.0,6,0.00,,,0.00,meteohub,2013-09-17 22:28:00,
2013-09-17 15:33:00,94.6,17.4,-100.00,SSW,194,23.0,35.0,6,0.00,,,0.00,meteohub,2013-09-17 22:33:00,
2013-09-17 15:38:00,94.5,13.1,-100.00,SW,226,23.0,31.0,5,0.00,,,0.00,meteohub,2013-09-17 22:38:00,
2013-09-17 15:43:00,94.5,24.1,-100.00,SW,228,7.0,31.0,8,0.00,,,0.00,meteohub,2013-09-17 22:43:00,
2013-09-17 15:48:00,94.5,17.4,-100.00,SW,214,23.0,29.0,6,0.00,,,0.00,meteohub,2013-09-17 22:48:00,
2013-09-17 15:54:00,94.3,26.8,-100.00,SW,230,8.0,29.0,9,0.00,,,0.00,meteohub,2013-09-17 22:54:00,
2013-09-17 15:59:00,94.1,17.1,-100.00,SW,229,15.0,28.0,6,0.00,,,0.00,meteohub,2013-09-17 22:59:00,
2013-09-17 16:04:00,93.9,26.6,-100.00,WSW,239,9.0,28.0,9,0.00,,,0.00,meteohub,2013-09-17 23:04:00,
2013-09-17 16:09:00,93.9,16.9,-100.00,WNW,286,19.0,33.0,6,0.00,,,0.00,meteohub,2013-09-17 23:09:00,
2013-09-17 16:14:00,93.6,16.7,-100.00,West,265,13.0,33.0,6,0.00,,,0.00,meteohub,2013-09-17 23:14:00,
2013-09-17 16:19:00,93.2,12.2,-100.00,WNW,284,13.0,33.0,5,0.00,,,0.00,meteohub,2013-09-17 23:19:00,
2013-09-17 16:24:00,92.8,16.2,-100.00,WSW,255,12.0,26.0,6,0.00,,,0.00,meteohub,2013-09-17 23:24:00,
2013-09-17 16:29:00,92.7,16.0,-100.00,West,263,13.0,27.0,6,0.00,,,0.00,meteohub,2013-09-17 23:29:00,
2013-09-17 16:34:00,92.5,11.8,-100.00,WSW,256,15.0,27.0,5,0.00,,,0.00,meteohub,2013-09-17 23:34:00,
2013-09-17 16:39:00,92.5,11.8,-100.00,WSW,252,24.0,32.0,5,0.00,,,0.00,meteohub,2013-09-17 23:39:00,
2013-09-17 16:44:00,92.1,11.5,-100.00,SW,236,19.0,32.0,5,0.00,,,0.00,meteohub,2013-09-17 23:44:00,
2013-09-17 16:49:00,91.9,6.4,-100.00,WSW,256,19.0,32.0,4,0.00,,,0.00,meteohub,2013-09-17 23:49:00,
2013-09-17 16:54:00,91.6,11.1,-100.00,WSW,243,21.0,30.0,5,0.00,,,0.00,meteohub,2013-09-17 23:54:00,
2013-09-17 16:59:00,91.0,14.9,-100.00,West,261,15.0,32.0,6,0.00,,,0.00,meteohub,2013-09-17 23:59:00,
2013-09-17 17:04:00,90.7,18.1,-100.00,WSW,248,17.0,32.0,7,0.00,,,0.00,meteohub,2013-09-18 00:04:00,
2013-09-17 17:09:00,90.3,18.0,-100.00,WSW,247,21.0,32.0,7,0.00,,,0.00,meteohub,2013-09-18 00:09:00,
2013-09-17 17:14:00,90.0,23.5,-100.00,SW,223,14.0,32.0,9,0.00,,,0.00,meteohub,2013-09-18 00:14:00,
2013-09-17 17:19:00,89.4,23.2,-100.00,WSW,243,9.0,32.0,9,0.00,,,0.00,meteohub,2013-09-18 00:19:00,
2013-09-17 17:24:00,89.2,25.5,-100.00,WSW,237,25.0,32.0,10,0.00,,,0.00,meteohub,2013-09-18 00:24:00,
2013-09-17 17:29:00,89.1,22.8,-100.00,SW,217,14.0,32.0,9,0.00,,,0.00,meteohub,2013-09-18 00:29:00,
2013-09-17 17:34:00,88.9,22.8,-100.00,South,189,15.0,32.0,9,0.00,,,0.00,meteohub,2013-09-18 00:34:00,
2013-09-17 17:39:00,88.5,22.5,-100.00,WSW,242,32.0,33.0,9,0.00,,,0.00,meteohub,2013-09-18 00:39:00,
2013-09-17 17:45:00,88.2,19.4,-100.00,WSW,248,20.0,33.0,8,0.00,,,0.00,meteohub,2013-09-18 00:45:00,
2013-09-17 17:50:00,88.0,19.4,-100.00,WSW,246,15.0,35.0,8,0.00,,,0.00,meteohub,2013-09-18 00:50:00,
2013-09-17 17:55:00,87.6,21.7,-100.00,WSW,256,17.0,35.0,9,0.00,,,0.00,meteohub,2013-09-18 00:55:00,
2013-09-17 18:00:00,87.1,21.4,-100.00,SW,234,19.0,35.0,9,0.00,,,0.00,meteohub,2013-09-18 01:00:00,
2013-09-17 18:05:00,86.7,23.7,-100.00,SW,231,19.0,35.0,10,0.00,,,0.00,meteohub,2013-09-18 01:05:00,
2013-09-17 18:10:00,86.4,20.8,-100.00,WSW,242,20.0,35.0,9,0.00,,,0.00,meteohub,2013-09-18 01:10:00,
2013-09-17 18:15:00,86.2,23.2,-100.00,West,266,31.0,39.0,10,0.00,,,0.00,meteohub,2013-09-18 01:15:00,
2013-09-17 18:20:00,85.6,22.8,-100.00,SW,229,22.0,39.0,10,0.00,,,0.00,meteohub,2013-09-18 01:20:00,
2013-09-17 18:25:00,85.5,22.6,-100.00,WSW,247,11.0,39.0,10,0.00,,,0.00,meteohub,2013-09-18 01:25:00,
2013-09-17 18:30:00,84.9,24.6,-100.00,WSW,245,31.0,36.0,11,0.00,,,0.00,meteohub,2013-09-18 01:30:00,
2013-09-17 18:35:00,84.6,24.3,-100.00,West,263,16.0,36.0,11,0.00,,,0.00,meteohub,2013-09-18 01:35:00,
2013-09-17 18:41:00,84.0,25.9,-100.00,WSW,240,29.0,36.0,12,0.00,,,0.00,meteohub,2013-09-18 01:41:00,
2013-09-17 18:46:00,83.7,25.7,-100.00,SW,236,14.0,33.0,12,0.00,,,0.00,meteohub,2013-09-18 01:46:00,
2013-09-17 18:52:00,82.9,27.0,-100.00,WSW,244,29.0,33.0,13,0.00,,,0.00,meteohub,2013-09-18 01:52:00,
2013-09-17 18:57:00,82.6,28.6,-100.00,SW,229,20.0,33.0,14,0.00,,,0.00,meteohub,2013-09-18 01:57:00,
2013-09-17 19:02:00,82.2,30.0,-100.00,SW,220,14.0,34.0,15,0.00,,,0.00,meteohub,2013-09-18 02:02:00,
2013-09-17 19:07:00,81.9,31.3,-100.00,WSW,238,8.0,34.0,16,0.00,,,0.00,meteohub,2013-09-18 02:07:00,
2013-09-17 19:12:00,81.5,30.9,-100.00,SW,236,21.0,32.0,16,0.00,,,0.00,meteohub,2013-09-18 02:12:00,
2013-09-17 19:17:00,81.1,30.7,-100.00,WSW,250,27.0,32.0,16,0.00,,,0.00,meteohub,2013-09-18 02:17:00,
2013-09-17 19:22:00,81.0,32.0,-100.00,WSW,253,26.0,31.0,17,0.00,,,0.00,meteohub,2013-09-18 02:22:00,
2013-09-17 19:27:00,80.8,31.8,-100.00,WSW,240,16.0,33.0,17,0.00,,,0.00,meteohub,2013-09-18 02:27:00,
2013-09-17 19:32:00,80.6,33.3,-100.00,West,262,12.0,33.0,18,0.00,,,0.00,meteohub,2013-09-18 02:32:00,
2013-09-17 19:37:00,80.2,32.9,-100.00,WSW,247,20.0,34.0,18,0.00,,,0.00,meteohub,2013-09-18 02:37:00,
2013-09-17 19:42:00,80.2,34.2,-100.00,SW,219,13.0,34.0,19,0.00,,,0.00,meteohub,2013-09-18 02:42:00,
2013-09-17 19:47:00,80.1,34.2,-100.00,WSW,242,13.0,33.0,19,0.00,,,0.00,meteohub,2013-09-18 02:47:00,
2013-09-17 19:52:00,79.9,35.2,-100.00,SSW,210,15.0,30.0,20,0.00,,,0.00,meteohub,2013-09-18 02:52:00,
2013-09-17 19:57:00,79.7,35.1,-100.00,SW,236,13.0,30.0,20,0.00,,,0.00,meteohub,2013-09-18 02:57:00,
2013-09-17 20:02:00,79.5,34.9,-100.00,WSW,238,14.0,30.0,20,0.00,,,0.00,meteohub,2013-09-18 03:02:00,
2013-09-17 20:07:00,79.3,36.0,-100.00,WSW,250,9.0,28.0,21,0.00,,,0.00,meteohub,2013-09-18 03:07:00,
2013-09-17 20:12:00,79.2,37.0,-100.00,WSW,240,7.0,29.0,22,0.00,,,0.00,meteohub,2013-09-18 03:12:00,
2013-09-17 20:17:00,79.2,38.1,-100.00,WSW,241,20.0,34.0,23,0.00,,,0.00,meteohub,2013-09-18 03:17:00,
2013-09-17 20:22:00,78.8,37.9,-100.00,SW,236,31.0,37.0,23,0.00,,,0.00,meteohub,2013-09-18 03:22:00,
2013-09-17 20:27:00,78.6,37.8,-100.00,SW,215,16.0,37.0,23,0.00,,,0.00,meteohub,2013-09-18 03:27:00,
2013-09-17 20:32:00,78.4,39.7,-100.00,WSW,244,20.0,37.0,25,0.00,,,0.00,meteohub,2013-09-18 03:32:00,
2013-09-17 20:37:00,78.1,39.4,-100.00,SSW,212,10.0,44.0,25,0.00,,,0.00,meteohub,2013-09-18 03:37:00,
2013-09-17 20:42:00,78.3,41.5,-100.00,SSW,196,18.0,44.0,27,0.00,,,0.00,meteohub,2013-09-18 03:42:00,
2013-09-17 20:47:00,77.5,42.8,-100.00,SSW,209,13.0,44.0,29,0.00,,,0.00,meteohub,2013-09-18 03:47:00,
2013-09-17 20:52:00,77.2,42.4,-100.00,SSW,208,7.0,33.0,29,0.00,,,0.00,meteohub,2013-09-18 03:52:00,
2013-09-17 20:58:00,76.5,42.8,-100.00,South,188,22.0,27.0,30,0.00,,,0.00,meteohub,2013-09-18 03:58:00,
2013-09-17 21:01:00,76.5,41.9,-100.00,South,182,14.0,27.0,29,0.00,,,0.00,meteohub,2013-09-18 04:01:00,
2013-09-17 21:03:00,76.3,38.8,-100.00,South,175,15.0,27.0,26,0.00,,,0.00,meteohub,2013-09-18 04:03:00,
2013-09-17 21:08:00,76.6,39.2,-100.00,SSW,209,5.0,27.0,26,0.00,,,0.00,meteohub,2013-09-18 04:08:00,
2013-09-17 21:14:00,76.8,39.4,-100.00,SSW,204,10.0,22.0,26,0.00,,,0.00,meteohub,2013-09-18 04:14:00,
2013-09-17 21:19:00,76.8,38.3,-100.00,SSW,200,13.0,22.0,25,0.00,,,0.00,meteohub,2013-09-18 04:19:00,
2013-09-17 21:24:00,76.8,38.3,-100.00,SSW,207,10.0,22.0,25,0.00,,,0.00,meteohub,2013-09-18 04:24:00,
2013-09-17 21:29:00,76.6,39.2,-100.00,SSW,196,16.0,27.0,26,0.00,,,0.00,meteohub,2013-09-18 04:29:00,
2013-09-17 21:34:00,76.6,39.2,-100.00,SSW,200,21.0,27.0,26,0.00,,,0.00,meteohub,2013-09-18 04:34:00,
2013-09-17 21:39:00,76.8,39.4,-100.00,SW,223,24.0,31.0,26,0.00,,,0.00,meteohub,2013-09-18 04:39:00,
2013-09-17 21:44:00,77.0,39.6,-100.00,SSW,195,30.0,31.0,26,0.00,,,0.00,meteohub,2013-09-18 04:44:00,
2013-09-17 21:49:00,76.8,40.3,-100.00,SSW,209,21.0,32.0,27,0.00,,,0.00,meteohub,2013-09-18 04:49:00,
2013-09-17 21:54:00,76.6,40.1,-100.00,South,178,14.0,32.0,27,0.00,,,0.00,meteohub,2013-09-18 04:54:00,
2013-09-17 21:59:00,76.6,40.1,-100.00,South,180,20.0,32.0,27,0.00,,,0.00,meteohub,2013-09-18 04:59:00,
2013-09-17 22:04:00,76.6,40.1,-100.00,SSW,212,21.0,32.0,27,0.00,,,0.00,meteohub,2013-09-18 05:04:00,
2013-09-17 22:09:00,76.5,41.0,-100.00,SSW,205,16.0,30.0,28,0.00,,,0.00,meteohub,2013-09-18 05:09:00,
2013-09-17 22:14:00,76.1,40.6,-100.00,SSW,201,10.0,29.0,28,0.00,,,0.00,meteohub,2013-09-18 05:14:00,
2013-09-17 22:19:00,75.7,40.3,-100.00,South,188,15.0,34.0,28,0.00,,,0.00,meteohub,2013-09-18 05:19:00,
2013-09-17 22:24:00,75.7,40.3,-100.00,SSW,209,17.0,34.0,28,0.00,,,0.00,meteohub,2013-09-18 05:24:00,
2013-09-17 22:29:00,75.7,40.3,-100.00,SW,221,10.0,34.0,28,0.00,,,0.00,meteohub,2013-09-18 05:29:00,
2013-09-17 22:31:00,75.7,40.3,-100.00,SSW,212,8.0,34.0,28,0.00,,,0.00,meteohub,2013-09-18 05:31:00,
2013-09-17 22:36:00,75.6,41.0,-100.00,WSW,252,23.0,33.0,29,0.00,,,0.00,meteohub,2013-09-18 05:36:00,
2013-09-17 22:41:00,75.6,41.0,-100.00,WSW,245,19.0,33.0,29,0.00,,,0.00,meteohub,2013-09-18 05:41:00,
2013-09-17 22:47:00,75.4,41.7,-100.00,SW,223,19.0,31.0,30,0.00,,,0.00,meteohub,2013-09-18 05:47:00,
2013-09-17 22:52:00,75.0,41.5,-100.00,SSW,213,9.0,31.0,30,0.00,,,0.00,meteohub,2013-09-18 05:52:00,
2013-09-17 22:57:00,74.8,42.3,-100.00,WSW,242,27.0,28.0,31,0.00,,,0.00,meteohub,2013-09-18 05:57:00,
2013-09-17 23:02:00,74.8,42.3,-100.00,SW,236,19.0,28.0,31,0.00,,,0.00,meteohub,2013-09-18 06:02:00,
2013-09-17 23:07:00,74.8,43.0,-100.00,SW,234,15.0,28.0,32,0.00,,,0.00,meteohub,2013-09-18 06:07:00,
2013-09-17 23:12:00,74.7,42.8,-100.00,SW,222,13.0,29.0,32,0.00,,,0.00,meteohub,2013-09-18 06:12:00,
2013-09-17 23:17:00,74.5,43.5,-100.00,WSW,238,8.0,29.0,33,0.00,,,0.00,meteohub,2013-09-18 06:17:00,
2013-09-17 23:22:00,74.1,44.8,-100.00,SW,217,11.0,29.0,35,0.00,,,0.00,meteohub,2013-09-18 06:22:00,
2013-09-17 23:27:00,73.8,44.4,-100.00,SW,215,12.0,25.0,35,0.00,,,0.00,meteohub,2013-09-18 06:27:00,
2013-09-17 23:32:00,73.8,44.4,-100.00,SW,215,20.0,26.0,35,0.00,,,0.00,meteohub,2013-09-18 06:32:00,
2013-09-17 23:37:00,73.6,44.2,-100.00,SW,215,21.0,32.0,35,0.00,,,0.00,meteohub,2013-09-18 06:37:00,
2013-09-17 23:42:00,73.6,42.6,-100.00,SSW,201,19.0,32.0,33,0.00,,,0.00,meteohub,2013-09-18 06:42:00,
2013-09-17 23:47:00,73.6,42.6,-100.00,SW,227,10.0,32.0,33,0.00,,,0.00,meteohub,2013-09-18 06:47:00,
2013-09-17 23:52:00,73.6,43.5,-100.00,SW,228,17.0,26.0,34,0.00,,,0.00,meteohub,2013-09-18 06:52:00,
2013-09-17 23:57:00,73.6,44.2,-100.00,SW,221,14.0,26.0,35,0.00,,,0.00,meteohub,2013-09-18 06:57:00,